Regional Weather Roundup
Issued by NWS

Home | Current Version | Previous Version | Text Only | Print | Product List | Glossary Off
Versions: 1 2 3 4 5 6 7 8 9 10 11 12 13 14 15 16 17 18 19 20 21 22 23 24 25 26 27 28 29 30 31 32 33 34 35 36 37 38 39 40 41 42 43 44 45 46 47 48 49 50

000
ASUS43 KOAX 311010
RWRNE

WEATHER ROUNDUP FOR NEBRASKA
NATIONAL WEATHER SERVICE OMAHA NE
500 AM CDT FRI JUL 31 2015

NOTES: SATELLITE DATA IS BEING USED TO AUGMENT CLOUD COVER ABOVE
       12000 FEET.
       "FAIR" INDICATES FEW OR NO CLOUDS BELOW 12,000 FEET WITH NO
       SIGNIFICANT WEATHER AND/OR OBSTRUCTIONS TO VISIBILITY.

  * THESE STATIONS DO NOT REPORT WEATHER SUCH AS RAIN...SNOW OR FOG.

NEZ001>004-019>022-054>056-311100-
NEBRASKA PANHANDLE

CITY           SKY/WX    TMP DP  RH WIND       PRES   REMARKS
SCOTTSBLUFF    CLEAR     60  57  89 NE3       30.26F
ALLIANCE       CLEAR     56  54  93 CALM      30.25S
CHADRON        CLEAR     55  48  77 CALM      30.22S
KIMBALL        CLEAR     58  55  92 W6        30.30S
SIDNEY         CLEAR     56  54  93 NW6       30.29S
$$

NEZ057>060-069>072-079>082-311100-
SOUTHWEST NEBRASKA

CITY           SKY/WX    TMP DP  RH WIND       PRES   REMARKS
NORTH PLATTE   CLEAR     62  59  90 E3        30.21R
IMPERIAL       CLEAR     61  57  87 SW3       30.23S
LEXINGTON      CLEAR     64  62  94 CALM      30.20S
MCCOOK         CLEAR     66  63  90 CALM      30.20S
OGALLALA       CLEAR     59  58  97 CALM      30.23S
$$

NEZ005>010-023>029-035>040-094-311100-
NORTH CENTRAL NEBRASKA

CITY           SKY/WX    TMP DP  RH WIND       PRES   REMARKS
VALENTINE      CLEAR     58  52  80 SW7       30.19R
AINSWORTH      CLEAR     64  57  77 SW3       30.18S
BROKEN BOW     CLEAR     62  59  90 CALM      30.19S
O`NEILL        CLEAR     63  63  98 W3        30.16S
ORD            CLEAR     63  61  93 CALM      30.16F
THEDFORD       CLEAR     59  57  94 CALM      30.21S
$$

NEZ041-046>049-061>064-073>077-083>087-311100-
SOUTH CENTRAL NEBRASKA

CITY           SKY/WX    TMP DP  RH WIND       PRES   REMARKS
GRAND ISLAND   CLEAR     69  66  90 SW6       30.17F
AURORA         CLEAR     68  67  98 SW6       30.17S
HASTINGS       CLEAR     69  65  86 SW5       30.18S
HEBRON         CLEAR     69  65  86 W3        30.17S
HOLDREGE       CLEAR     67  64  88 S6        30.20S
KEARNEY *      CLEAR     70  64  83 SW7       30.18F
YORK           CLEAR     68  66  94 SW6       30.16S
$$

NEZ011>018-030>034-042>045-311100-
NORTHEAST NEBRASKA

CITY           SKY/WX    TMP DP  RH WIND       PRES   REMARKS
NORFOLK        CLEAR     68  62  81 S9        30.15S
ALBION         CLEAR     65  62  90 SE3       30.16S
BLAIR          MOCLDY    65  62  88 S6        30.15F
COLUMBUS *     CLEAR     66  61  82 W3        30.16S
FREMONT        PTCLDY    71  59  67 SE9       30.16F
TEKAMAH        MOCLDY    68  64  87 SW6       30.12S
WAYNE          CLEAR     66  63  89 SW7       30.14S
$$

NEZ050>053-065>068-078-088>093-311100-
SOUTHEAST NEBRASKA

CITY           SKY/WX    TMP DP  RH WIND       PRES   REMARKS
LINCOLN        CLEAR     69  64  84 NE7       30.16R
OMAHA EPPLEY   TSTM      69  65  86 SE6       30.15F
BEATRICE       CLEAR     66  63  89 CALM      30.15F
FALLS CITY     CLEAR     64  62  93 CALM      30.14S
NEBRASKA CITY  CLEAR     66  60  79 SW8       30.15S
PLATTSMOUTH    MOCLDY    68  64  87 NW12G18   30.20R
$$

NEZ044-045-051>053-067-311100-
OMAHA AREA

CITY           SKY/WX    TMP DP  RH WIND       PRES   REMARKS
OMAHA EPPLEY   TSTM      69  65  86 SE6       30.15F
BLAIR          MOCLDY    65  62  88 S6        30.15F
FREMONT        PTCLDY    71  59  67 SE9       30.16F
MILLARD        CLOUDY    69  65  88 E7        30.17F
OFFUTT AFB     TSTM      68  64  88 VRB6G39   30.17R FOG
PLATTSMOUTH    MOCLDY    68  64  87 NW12G18   30.20R
WAHOO          PTSUNNY   69  63  79 E9        30.17F
$$


USA.gov is the U.S. government's official web portal to all federal, state and local government web resources and services.